TimeEDT,TemperatureF,Dew PointF,Humidity,Sea Level PressureIn,VisibilityMPH,Wind Direction,Wind SpeedMPH,Gust SpeedMPH,PrecipitationIn,Events,Conditions,WindDirDegrees,DateUTC
12:52 AM,59.0,51.1,75,29.80,10.0,NW,6.9,-,N/A,,Mostly Cloudy,320,2013-09-14 04:52:00
1:52 AM,59.0,50.0,72,29.80,10.0,NNW,9.2,-,N/A,,Overcast,330,2013-09-14 05:52:00
2:52 AM,57.9,50.0,75,29.82,10.0,NW,8.1,-,N/A,,Mostly Cloudy,310,2013-09-14 06:52:00
3:52 AM,55.0,52.0,89,29.82,10.0,NW,4.6,-,0.02,,Partly Cloudy,310,2013-09-14 07:52:00
4:52 AM,54.0,51.1,90,29.83,10.0,NW,5.8,-,N/A,,Clear,310,2013-09-14 08:52:00
5:52 AM,54.0,50.0,86,29.85,10.0,WNW,5.8,-,N/A,,Clear,300,2013-09-14 09:52:00
6:52 AM,54.0,48.9,83,29.87,10.0,WNW,6.9,-,N/A,,Clear,300,2013-09-14 10:52:00
7:52 AM,57.0,50.0,77,29.89,10.0,NW,9.2,-,N/A,,Clear,310,2013-09-14 11:52:00
8:52 AM,61.0,50.0,67,29.91,10.0,NW,9.2,-,N/A,,Clear,320,2013-09-14 12:52:00
9:52 AM,63.0,48.9,60,29.91,10.0,NNW,11.5,18.4,N/A,,Scattered Clouds,330,2013-09-14 13:52:00
10:07 AM,62.6,50.0,63,29.92,10.0,NW,11.5,-,N/A,,Mostly Cloudy,320,2013-09-14 14:07:00
10:52 AM,61.0,48.9,64,29.94,10.0,WNW,9.2,-,N/A,,Overcast,300,2013-09-14 14:52:00
11:52 AM,64.0,48.9,58,29.93,10.0,WNW,10.4,-,N/A,,Overcast,290,2013-09-14 15:52:00
12:52 PM,66.0,48.9,54,29.93,10.0,NNW,5.8,-,N/A,,Overcast,340,2013-09-14 16:52:00
1:52 PM,66.9,48.9,52,29.93,10.0,WNW,6.9,-,N/A,,Overcast,300,2013-09-14 17:52:00
2:52 PM,66.9,48.9,52,29.94,10.0,NW,6.9,-,N/A,,Overcast,310,2013-09-14 18:52:00
3:52 PM,66.0,48.0,52,29.95,10.0,WNW,8.1,16.1,N/A,,Overcast,290,2013-09-14 19:52:00
4:52 PM,66.0,48.9,54,29.97,10.0,WNW,10.4,-,N/A,,Overcast,300,2013-09-14 20:52:00
5:52 PM,64.9,48.9,56,29.99,10.0,NNW,11.5,-,N/A,,Partly Cloudy,340,2013-09-14 21:52:00
6:52 PM,62.1,48.9,62,30.02,10.0,NNW,9.2,-,N/A,,Overcast,340,2013-09-14 22:52:00
7:52 PM,57.9,48.9,72,30.04,10.0,NW,3.5,-,N/A,,Scattered Clouds,310,2013-09-14 23:52:00
8:52 PM,55.9,48.9,77,30.06,10.0,Calm,Calm,-,N/A,,Clear,0,2013-09-15 00:52:00
9:52 PM,55.0,48.9,80,30.06,10.0,Calm,Calm,-,N/A,,Clear,0,2013-09-15 01:52:00
10:52 PM,54.0,48.9,83,30.06,10.0,North,5.8,-,N/A,,Clear,350,2013-09-15 02:52:00
11:52 PM,54.0,48.9,83,30.07,10.0,Calm,Calm,-,N/A,,Clear,0,2013-09-15 03:52:00